This is the latest recevied weather packets stored in our database for station/object AK4NG. If no packets are shown the sender has not sent any weather packets the latest 10 day(s).
| Time | Temp. | Humidity | Pressure | Rain* | Wind** | Luminosity | Snow |
|---|---|---|---|---|---|---|---|
| 1777559827 | 18.89° C | 94% | 1013.3 hPa | 0 mm | - | 109 W/m² | - |
| 1777559523 | 18.89° C | 93% | 1013.2 hPa | 0 mm | - | 102 W/m² | - |
| 1777559220 | 18.89° C | 93% | 1013 hPa | 0 mm | - | 129 W/m² | - |
| 1777558920 | 18.89° C | 93% | 1012.7 hPa | 0 mm | - | 155 W/m² | - |
| 1777558616 | 18.89° C | 93% | 1013 hPa | 0 mm | - | 112 W/m² | - |
| 1777558312 | 18.89° C | 92% | 1012.9 hPa | 0 mm | - | 111 W/m² | - |
| 1777558009 | 18.89° C | 93% | 1013 hPa | 0 mm | - | 111 W/m² | - |
| 1777557705 | 18.89° C | 93% | 1012.7 hPa | 0 mm | - | 158 W/m² | - |
| 1777557402 | 18.89° C | 93% | 1012.8 hPa | 0 mm | - | 168 W/m² | - |
| 1777557098 | 18.89° C | 94% | 1012.5 hPa | 0 mm | - | 180 W/m² | - |
| 1777556793 | 18.89° C | 94% | 1012.6 hPa | 0 mm | - | 181 W/m² | - |
| 1777556491 | 18.89° C | 95% | 1012.6 hPa | 0 mm | - | 179 W/m² | - |
| 1777556190 | 18.33° C | 95% | 1012.6 hPa | 0 mm | - | 173 W/m² | - |
| 1777555886 | 18.33° C | 95% | 1012.7 hPa | 0 mm | - | 172 W/m² | - |
| 1777555582 | 18.33° C | 96% | 1012.6 hPa | 0 mm | - | 138 W/m² | - |
| 1777555279 | 18.33° C | 97% | 1012.6 hPa | 0 mm | - | 199 W/m² | - |
| 1777554975 | 18.33° C | 97% | 1012.5 hPa | 0 mm | - | 145 W/m² | - |
| 1777554672 | 17.78° C | 97% | 1012.8 hPa | 0 mm | - | 114 W/m² | - |
| 1777554369 | 17.78° C | 97% | 1012.7 hPa | 0 mm | - | 112 W/m² | - |
| 1777554066 | 17.78° C | 97% | 1012.6 hPa | 0 mm | - | 77 W/m² | - |
| 1777553762 | 17.78° C | 98% | 1012.4 hPa | 0 mm | - | 78 W/m² | - |
| 1777553460 | 17.78° C | 98% | 1012.7 hPa | 0 mm | - | 69 W/m² | - |
| 1777553156 | 17.78° C | 98% | 1012.4 hPa | 0 mm | - | 93 W/m² | - |
| 1777552855 | 17.78° C | 98% | 1012.6 hPa | 0 mm | - | 82 W/m² | - |
| 1777552551 | 17.78° C | 98% | 1012.6 hPa | 0 mm | - | 85 W/m² | - |
* Rain latest hour (hover to see other rain measurements)
** Current wind speed in m/s (hover to see current wind gust speed)